Miscellaneous Local Product
Issued by NWS North Platte, NE

Home | Current Version | Previous Version | Graphics & Text | Print | Product List | Glossary On
Versions: 1 2 3 4 5 6 7 8 9 10 11 12 13 14 15 16 17 18 19 20 21 22 23 24 25 26 27 28 29 30 31 32 33 34 35 36 37 38 39 40 41 42 43 44 45 46 47 48 49 50
044
AXUS43 KLBF 110210
MISLBF


WESTERN AND NORTH CENTRAL NEBRASKA HOURLY WEATHER ROUNDUP
NATIONAL WEATHER SERVICE NORTH PLATTE NE
800 PM CST SAT DEC 10 2016

NOTE: "FAIR" INDICATES FEW OR NO CLOUDS BELOW 12,000 FEET WITH NO
SIGNIFICANT WEATHER AND/OR OBSTRUCTIONS TO VISIBILITY.

NOTE: STATIONS NOT REPORTING VARIABLES SUCH AS SKY/WEATHER OR
PRESSURE ARE PROVIDED BY RAWS AND APRS NETWORKS AND ARE NOT UNDER
NATIONAL WEATHER SERVICE QUALITY CONTROL.

...OBSERVATIONS IN AND NEAR THE EASTERN PANHANDLE OF NEBRASKA...

CITY           SKY/WX    TMP DP  RH WIND       PRES   REMARKS
PINE RIDGE     CLOUDY     7   5  91 NE3       29.66F
CHADRON        CLOUDY     8   4  83 N6        29.66F WCI  -2
ALLIANCE       CLOUDY    27  22  81 S9        29.64F WCI  18
SIDNEY         CLOUDY    29  24  82 S9        29.69F WCI  20
CRESCENT LAKE    N/A     28  24  86 S6          N/A  WCI  22
$$

...OBSERVATIONS IN NORTHERN NEBRASKA AND FAR SOUTHERN SOUTH DAKOTA...

CITY           SKY/WX    TMP DP  RH WIND       PRES   REMARKS
WINNER         CLOUDY    22  18  85 E17       29.78F WCI   8
VALENTINE      CLOUDY    12  10  92 N3        29.74F FOG
THEDFORD       CLOUDY    29  25  82 S6        29.73F WCI  23
AINSWORTH      CLOUDY    27  24  86 SE9       29.74F WCI  18
O`NEILL        CLOUDY    28  22  78 SE8       29.84F WCI  19
ORD            CLOUDY    30  19  63 SE10      29.81S WCI  21
BROKEN BOW     CLOUDY    31  23  72 S7        29.80R WCI  24
VALENTINE NWR    N/A     22  19  87 S6          N/A  WCI  15
BUTTE            N/A     21  19  91 E17G24      N/A  WCI   7
HALSEY           N/A     28  21  75 S6          N/A  WCI  22
CHAMBERS         N/A     27  18  69 SE3         N/A
EWING            N/A     27  22  80 CALM        N/A
$$

...OBSERVATIONS IN SOUTHWEST NEBRASKA AND FAR NORTHEAST COLORADO...

CITY           SKY/WX    TMP DP  RH WIND       PRES   REMARKS
WRAY           FAIR      28  27  93 CALM      29.74
HOLYOKE        FAIR      32  28  86 S3        29.73S
IMPERIAL       CLOUDY    27  24  89 CALM      29.75F
OGALLALA       CLOUDY    31  26  81 SW6       29.74F WCI  25
NORTH PLATTE   CLOUDY    28  22  78 SE5       29.77F WCI  23
MCCOOK         CLOUDY    29  23  78 E6        29.78F WCI  23
LEXINGTON      CLOUDY    30  24  78 SE7       29.79F WCI  23
STAPLETON        N/A     27  22  81 CALM        N/A
GOTHENBURG       N/A     31  24  73 S3          N/A
CALLAWAY         N/A     29  24  81 S13         N/A  WCI  19
$$

...OBSERVATIONS IN CENTRAL LINCOLN COUNTY AREA...

CITY           SKY/WX    TMP DP  RH WIND       PRES   REMARKS
N.P. AIRPORT   CLOUDY    28  22  78 SE5       29.77F WCI  23
N.P. DOWNTOWN    N/A     28  23  82 CALM        N/A
N.P. SOUTHEAST   N/A     28  23  81 CALM        N/A
N.P. HILLCREST   N/A     28  24  83 S3          N/A
$$

...SOME OBSERVATIONS FROM AROUND THE REGION...

CITY           SKY/WX    TMP DP  RH WIND       PRES   REMARKS
LARAMIE        CLOUDY    37  26  64 W17G25    29.76F WCI  27
CHEYENNE       CLOUDY    43  29  57 W28G37    29.70F
DENVER         CLOUDY    46  29  51 NW9       29.71F
AKRON          CLOUDY    39  26  59 NE3       29.71S
SCOTTSBLUFF    CLOUDY    25  19  78 SE5       29.65F WCI  19
RAPID CITY     CLOUDY     5   2  87 E5        29.74R WCI  -4
BISMARCK       FLURRIES  -1  -5  82 E13       30.02F WCI -19
PIERRE         CLOUDY    11   8  88 E17       29.87F WCI  -6
SIOUX FALLS    FLURRIES  18  16  92 E13       30.00F WCI   5
OMAHA          CLOUDY    32  18  56 SE13      30.00F WCI  22
GRAND ISLAND   CLOUDY    30  22  72 SE10      29.85F WCI  21
KANSAS CITY    CLOUDY    36  18  48 SE10      30.02F WCI  28
WICHITA        CLOUDY    37  24  59 S16       29.94F WCI  28
OKLAHOMA CITY  CLOUDY    40  33  76 S21G30    29.97F WCI  30
DALLAS         CLOUDY    47  29  49 S15       30.17F
AMARILLO       CLOUDY    52  35  52 S16       29.87F
DODGE CITY     CLOUDY    37  29  72 S18       29.76F WCI  27
HAYS           CLOUDY    31  25  78 SE9       29.81F WCI  23
GOODLAND       CLOUDY    31  25  78 S10       29.74R WCI  22
$$




USA.gov is the U.S. government's official web portal to all federal, state and local government web resources and services.